If you wish to contribute or participate in the discussions about articles you are invited to join SKYbrary as a registered user

 Actions

Ho Chi Minh City International Airport

From SKYbrary Wiki

VVTS
Airport
ICAO: VVTS – IATA: SGN
Summary
Name Ho Chi Minh City International Airport
Region Asia and Pacific
Territory Vietnam VN.gif
Location Ho Chi Minh City, Ho Chi Minh City
Serving Ho Chi Minh City
Elevation 10.058 m
33 ft10.058 m
Coordinates 10° 49' 14.02" N, 106° 39' 38.99" E
Runways
Designator Length Width Surface ROPS
07L/25R 3048 m10,000 ft
45 m147.638 ft
CON yes/yes
07R/25L 3800 m12,467.192 ft
45 m147.638 ft
CON yes/yes


METAR
Observation VVTS 122030Z VRB02KT 9999 FEW017 23/22 Q1011 NOSIG
Station Ho Chi Minh
Date/Time 12 December 2019 20:30:00
Wind direction °
Wind speed 02 kts
Lowest cloud amount few clouds
Temperature 23°C
Dew point 22°C
Humidity 94%
QNH 1011 hPa
Weather condition n/a

Description

International airport serving Ho Chi Minh City, Vietnam.

Climatology

Tropical savannah climate (Köppen climate classification Aw)

Maps

Terrain

Loading map...

Airport Layout

Loading map...


Accidents & Serious Incidents at or in vicinity of VVTS

None on SKYbrary